Istanbul, Turkey

7:08 AM +03 on May 30, 2017 (GMT +0300)
Ataturk

Weather History for LTBA - January, 2011

Change the Weather History Date:

Saturday, January 15, 2011

  Actual Average Record
Temperature  
Mean Temperature 45 °F -  
Max Temperature 50 °F 46 °F 59 °F (2009)
Min Temperature 40 °F 37 °F 30 °F (2012)
Degree Days  
Heating Degree Days 20    
Moisture  
Dew Point 43 °F    
Average Humidity 87    
Maximum Humidity 93    
Minimum Humidity 73    
Precipitation  
Precipitation 0.00 in - - ()
Sea Level Pressure  
Sea Level Pressure 30.07 in    
Wind  
Wind Speed 5 mph ()    
Max Wind Speed 13 mph    
Max Gust Speed -    
Visibility 5.2 miles    
Events      
Averages and records for this station are not official NWS values.
T = Trace of Precipitation, MM = Missing Value Source: Averaged Metar Reports

Daily Weather History Graph

Daily Weather History Graph

Search for Another Location

Airport or City:

Trip Planner

Search our weather history database for the weather conditions in past years. The results will help you decide how hot, cold, wet, or windy it might be!

Date:

Astronomy

Jan. 15, 2011 Rise Set
Actual Time 7:27 AM EET 5:00 PM EET
Civil Twilight 6:57 AM EET 5:31 PM EET
Nautical Twilight 6:23 AM EET 6:04 PM EET
Astronomical Twilight 5:50 AM EET 6:37 PM EET
Moon 12:44 PM EET (1/15) 3:10 AM EET (1/15)
Length of Visible Light 10h 33m
Length of Day
9h 33m
Waxing Gibbous, 77% of the Moon is Illuminated
Jan 15
Waxing Gibbous
Jan 19
Full
Jan 26
Last Quarter
Feb 3
New
Feb 11
First Quarter

Hourly Weather History & Observations

Time (EET) Temp. Windchill Dew Point Humidity Pressure Visibility Wind Dir Wind Speed Gust Speed Precip Events Conditions
12:20 AM 42.8 °F - 41.0 °F 93% 30.06 in 3.7 mi Variable 1.2 mph - N/A   Unknown
12:50 AM 41.0 °F - 37.4 °F 87% 30.06 in 2.5 mi Calm Calm - N/A   Mist
1:20 AM 44.6 °F - 42.8 °F 93% 30.06 in 2.5 mi Variable 2.3 mph - N/A   Mist
1:50 AM 42.8 °F 41.1 °F 41.0 °F 93% 30.06 in 2.2 mi SSW 3.5 mph - N/A   Mist
2:00 AM 43 °F - 40 °F 86% 30.09 in 2 mi SSW 3.5 mph - -   Mist
2:20 AM 44.6 °F 42.2 °F 42.8 °F 93% 30.09 in - WSW 4.6 mph - N/A   Partly Cloudy
2:50 AM 46.4 °F 42.4 °F 44.6 °F 93% 30.09 in 2.5 mi SW 8.1 mph - N/A   Partly Cloudy
3:20 AM 44.6 °F 40.7 °F 42.8 °F 93% 30.06 in - SW 6.9 mph - N/A   Partly Cloudy
3:50 AM 46.4 °F 43.5 °F 42.8 °F 87% 30.06 in - WSW 5.8 mph - N/A   Mist
4:20 AM 44.6 °F 40.7 °F 42.8 °F 93% 30.06 in 2.8 mi WSW 6.9 mph - N/A   Partly Cloudy
4:50 AM 46.4 °F 42.4 °F 44.6 °F 93% 30.06 in - WSW 8.1 mph - N/A   Partly Cloudy
5:20 AM 46.4 °F 42.4 °F 42.8 °F 87% 30.06 in 3.1 mi WSW 8.1 mph - N/A   Partly Cloudy
5:50 AM 46.4 °F 42.4 °F 42.8 °F 87% 30.06 in 3.1 mi WSW 8.1 mph - N/A   Scattered Clouds
6:20 AM 46.4 °F 42.4 °F 42.8 °F 87% 30.09 in 3.1 mi SW 8.1 mph - N/A   Scattered Clouds
6:50 AM 46.4 °F 41.9 °F 42.8 °F 87% 30.09 in 3.1 mi SW 9.2 mph - N/A   Scattered Clouds
7:20 AM 46.4 °F 41.9 °F 42.8 °F 87% 30.09 in 3.7 mi SW 9.2 mph - N/A   Scattered Clouds
7:50 AM 46.4 °F 42.9 °F 42.8 °F 87% 30.09 in 4.3 mi SSW 6.9 mph - N/A   Scattered Clouds
8:00 AM 46 °F - 43 °F 86% 30.11 in 4 mi SSW 6.9 mph - -   Mist
8:20 AM 46.4 °F 41.5 °F 42.8 °F 87% 30.09 in 4.3 mi SSW 10.4 mph - N/A   Scattered Clouds
8:50 AM 46.4 °F 41.5 °F 42.8 °F 87% 30.09 in 6.2 mi SSW 10.4 mph - N/A   Mostly Cloudy
9:20 AM 46.4 °F 42.4 °F 44.6 °F 93% 30.12 in 6.2 mi SSW 8.1 mph - N/A   Mostly Cloudy
9:50 AM 48.2 °F - 44.6 °F 87% 30.12 in 6.2 mi SSW 10.4 mph - N/A   Mostly Cloudy
10:20 AM 48.2 °F - 44.6 °F 87% 30.09 in 6.2 mi SW 12.7 mph - N/A   Mostly Cloudy
10:50 AM 48.2 °F - 42.8 °F 82% 30.09 in 6.2 mi SW 12.7 mph - N/A   Mostly Cloudy
11:20 AM 50.0 °F - 44.6 °F 82% 30.09 in 6.2 mi SSW 12.7 mph - N/A   Mostly Cloudy
11:50 AM 50.0 °F - 44.6 °F 82% 30.09 in 6.2 mi SSW 11.5 mph - N/A   Mostly Cloudy
12:20 PM 50.0 °F - 42.8 °F 76% 30.09 in 6.2 mi SSW 10.4 mph - N/A   Mostly Cloudy
12:50 PM 48.2 °F - 42.8 °F 82% 30.06 in 6.2 mi SSW 12.7 mph - N/A   Mostly Cloudy
1:20 PM 50.0 °F - 42.8 °F 76% 30.06 in 6.2 mi SSW 10.4 mph - N/A   Mostly Cloudy
1:50 PM 48.2 °F - 42.8 °F 82% 30.06 in 6.2 mi SW 10.4 mph - N/A   Mostly Cloudy
2:00 PM 48 °F - 42 °F 73% 30.08 in 6 mi SW 10.4 mph - -   Partly Cloudy
2:20 PM 48.2 °F - 42.8 °F 82% 30.06 in 6.2 mi SW 9.2 mph - N/A   Mostly Cloudy
2:50 PM 50.0 °F - 42.8 °F 76% 30.06 in 6.2 mi SW 9.2 mph - N/A   Mostly Cloudy
3:20 PM 48.2 °F - 42.8 °F 82% 30.06 in 6.2 mi SSW 8.1 mph - N/A   Mostly Cloudy
3:50 PM 48.2 °F - 42.8 °F 82% 30.06 in 6.2 mi SSW 8.1 mph - N/A   Mostly Cloudy
4:20 PM 48.2 °F - 42.8 °F 82% 30.06 in 6.2 mi SSW 5.8 mph - N/A   Mostly Cloudy
4:50 PM 48.2 °F - 42.8 °F 82% 30.06 in 6.2 mi SW 4.6 mph - N/A   Mostly Cloudy
5:20 PM 46.4 °F 44.3 °F 41.0 °F 81% 30.06 in 6.2 mi South 4.6 mph - N/A   Mostly Cloudy
5:50 PM 46.4 °F - 41.0 °F 81% 30.06 in 6.2 mi South 2.3 mph - N/A   Mostly Cloudy
6:20 PM 46.4 °F 45.2 °F 41.0 °F 81% 30.06 in 6.2 mi South 3.5 mph - N/A   Mostly Cloudy
6:50 PM 46.4 °F - 42.8 °F 87% 30.06 in 6.2 mi Calm Calm - N/A   Mostly Cloudy
7:20 PM 48.2 °F - 44.6 °F 87% 30.06 in 6.2 mi ESE 3.5 mph - N/A   Mostly Cloudy
7:50 PM 48.2 °F - 44.6 °F 87% 30.06 in 6.2 mi ESE 4.6 mph - N/A   Mostly Cloudy
8:00 PM 48 °F - 45 °F 85% 30.06 in 6 mi ESE 4.6 mph - -   Partly Cloudy
8:20 PM 48.2 °F - 46.4 °F 93% 30.04 in 6.2 mi SE 4.6 mph - N/A   Mostly Cloudy
9:20 PM 48.2 °F - 46.4 °F 93% 30.04 in 6.2 mi SE 3.5 mph - N/A   Mostly Cloudy
9:50 PM 48.2 °F - 46.4 °F 93% 30.04 in 6.2 mi Variable 2.3 mph - N/A   Mostly Cloudy
10:20 PM 48.2 °F - 46.4 °F 93% 30.04 in 6.2 mi ESE 3.5 mph - N/A   Mostly Cloudy
10:50 PM 48.2 °F - 46.4 °F 93% 30.04 in 6.2 mi Variable 2.3 mph - N/A   Mostly Cloudy
11:20 PM 48.2 °F - 46.4 °F 93% 30.04 in 6.2 mi East 3.5 mph - N/A   Mostly Cloudy
11:50 PM 48.2 °F - 46.4 °F 93% 30.04 in 6.2 mi Calm Calm - N/A   Mostly Cloudy